| time (UTC) | temp F | wind direction | speed MPH | gust MPH | rain 1hr in | rain 24hr in | rain mn in | humidity % | barometer mb |
| 20260906164601 | 75 | 212 | 3.0 | 8.0 | 0.00 | 0.00 | 0.00 | 77 | 1021.5 |
| 20260906163101 | 74 | 212 | 2.0 | 5.0 | 0.00 | 0.00 | 0.00 | 79 | 1021.4 |
| 20260906161554 | 73 | 212 | 3.0 | 7.0 | 0.00 | 0.00 | 0.00 | 79 | 1021.5 |
| 20260906160053 | 72 | 212 | 3.0 | 7.0 | 0.00 | 0.00 | 0.00 | 81 | 1021.4 |
| 20260906154559 | 71 | 212 | 3.0 | 7.0 | 0.00 | 0.00 | 0.00 | 82 | 1021.4 |
| 20260906153055 | 69 | 212 | 4.0 | 8.0 | 0.00 | 0.00 | 0.00 | 84 | 1021.3 |
| 20260906151613 | 69 | 212 | 3.0 | 9.0 | 0.00 | 0.00 | 0.00 | 83 | 1021.5 |
| 20260906150105 | 68 | 212 | 7.0 | 11.0 | 0.00 | 0.00 | 0.00 | 86 | 1021.1 |
| 20260906144555 | 68 | 212 | 7.0 | 11.0 | 0.00 | 0.00 | 0.00 | 85 | 1021.3 |
| 20260906143119 | 67 | 212 | 7.0 | 10.0 | 0.00 | 0.00 | 0.00 | 87 | 1021.2 |
| 20260906141600 | 66 | 212 | 5.0 | 8.0 | 0.00 | 0.00 | 0.00 | 88 | 1021.3 |
| 20260906140055 | 65 | 212 | 5.0 | 8.0 | 0.00 | 0.00 | 0.00 | 90 | 1021.5 |
| 20260906134600 | 64 | 212 | 4.0 | 8.0 | 0.00 | 0.00 | 0.00 | 92 | 1021.6 |
| 20260906133105 | 63 | 212 | 4.0 | 7.0 | 0.00 | 0.00 | 0.00 | 95 | 1021.6 |
| 20260906131559 | 60 | 212 | 3.0 | 5.0 | 0.00 | 0.00 | 0.00 | 98 | 1021.8 |
| 20260906130055 | 58 | 212 | 3.0 | 6.0 | 0.00 | 0.00 | 0.00 | 98 | 1021.6 |
| 20260906124605 | 56 | 0 | 0.0 | 3.0 | 0.00 | 0.01 | 0.00 | 97 | 1021.6 |
| 20260906123137 | 55 | 212 | 2.0 | 4.0 | 0.00 | 0.01 | 0.00 | 97 | 1021.1 |
| 20260906121557 | 54 | 212 | 2.0 | 5.0 | 0.00 | 0.01 | 0.00 | 96 | 1021.1 |
| 20260906120112 | 54 | 212 | 1.0 | 4.0 | 0.00 | 0.01 | 0.00 | 96 | 1020.8 |
| 20260906114611 | 54 | 212 | 2.0 | 5.0 | 0.00 | 0.01 | 0.00 | 96 | 1020.8 |
| 20260906113101 | 54 | 212 | 3.0 | 4.0 | 0.00 | 0.01 | 0.00 | 96 | 1020.9 |
| 20260906111557 | 55 | 212 | 3.0 | 5.0 | 0.00 | 0.01 | 0.00 | 96 | 1020.7 |
| 20260906110105 | 55 | 0 | 0.0 | 4.0 | 0.00 | 0.01 | 0.00 | 96 | 1020.6 |
| 20260906104600 | 55 | 212 | 1.0 | 5.0 | 0.00 | 0.01 | 0.00 | 96 | 1020.3 |
| 20260906103106 | 55 | 212 | 2.0 | 5.0 | 0.00 | 0.01 | 0.00 | 96 | 1020.2 |
| 20260906101601 | 55 | 212 | 2.0 | 5.0 | 0.00 | 0.01 | 0.00 | 96 | 1020.3 |
| 20260906100100 | 56 | 212 | 2.0 | 6.0 | 0.00 | 0.01 | 0.00 | 96 | 1020.2 |
| 20260906094607 | 56 | 212 | 4.0 | 6.0 | 0.00 | 0.02 | 0.00 | 96 | 1020.2 |
| 20260906093105 | 56 | 212 | 4.0 | 7.0 | 0.00 | 0.02 | 0.00 | 96 | 1020.2 |
| 20260906091606 | 57 | 212 | 4.0 | 7.0 | 0.00 | 0.02 | 0.00 | 96 | 1020.0 |
| 20260906090054 | 57 | 212 | 4.0 | 7.0 | 0.00 | 0.02 | 0.00 | 96 | 1020.2 |
| 20260906084559 | 57 | 212 | 3.0 | 6.0 | 0.00 | 0.02 | 0.00 | 96 | 1020.2 |
| 20260906083105 | 57 | 212 | 5.0 | 10.0 | 0.00 | 0.02 | 0.00 | 96 | 1020.0 |
| 20260906081603 | 57 | 212 | 4.0 | 6.0 | 0.00 | 0.02 | 0.00 | 96 | 1020.2 |
| 20260906074607 | 57 | 212 | 2.0 | 4.0 | 0.00 | 0.02 | 0.00 | 95 | 1020.5 |
| 20260906073057 | 58 | 212 | 2.0 | 5.0 | 0.00 | 0.02 | 0.00 | 96 | 1020.7 |
| 20260906071556 | 58 | 212 | 3.0 | 7.0 | 0.00 | 0.02 | 0.00 | 96 | 1020.8 |
| 20260906070104 | 57 | 212 | 2.0 | 4.0 | 0.00 | 0.02 | 0.00 | 95 | 1020.5 |
| 20260906064554 | 58 | 212 | 1.0 | 4.0 | 0.00 | 0.02 | 0.00 | 96 | 1020.3 |
| 20260906063058 | 58 | 212 | 1.0 | 5.0 | 0.00 | 0.02 | 0.00 | 95 | 1020.4 |
| 20260906061604 | 59 | 212 | 2.0 | 5.0 | 0.00 | 0.02 | 0.00 | 95 | 1020.3 |
| 20260906054605 | 60 | 0 | 0.0 | 3.0 | 0.00 | 0.02 | 0.00 | 95 | 1020.5 |
| 20260906053108 | 60 | 212 | 1.0 | 5.0 | 0.00 | 0.02 | 0.00 | 95 | 1020.6 |
| 20260906051605 | 60 | 212 | 4.0 | 6.0 | 0.00 | 0.02 | 0.00 | 95 | 1020.3 |
| 20260906050108 | 60 | 212 | 3.0 | 6.0 | 0.00 | 0.02 | 0.00 | 95 | 1020.4 |
| 20260906044600 | 60 | 212 | 2.0 | 4.0 | 0.00 | 0.02 | 0.02 | 95 | 1020.7 |
| 20260906043103 | 61 | 212 | 0.0 | 4.0 | 0.00 | 0.02 | 0.02 | 94 | 1020.6 |
| 20260906041603 | 61 | 0 | 1.0 | 2.0 | 0.00 | 0.02 | 0.02 | 94 | 1020.9 |
| 20260906040057 | 61 | 0 | 0.0 | 3.0 | 0.00 | 0.02 | 0.02 | 93 | 1020.8 |
| 20260906034606 | 62 | 0 | 0.0 | 3.0 | 0.00 | 0.02 | 0.02 | 93 | 1020.7 |
| 20260906033111 | 62 | 212 | 2.0 | 6.0 | 0.00 | 0.02 | 0.02 | 93 | 1020.5 |
| 20260906031603 | 62 | 212 | 4.0 | 7.0 | 0.00 | 0.02 | 0.02 | 93 | 1020.3 |
| 20260906030054 | 62 | 212 | 4.0 | 6.0 | 0.00 | 0.02 | 0.02 | 93 | 1020.3 |
| 20260906024601 | 62 | 212 | 2.0 | 7.0 | 0.00 | 0.02 | 0.02 | 93 | 1020.0 |
| 20260906023056 | 62 | 212 | 5.0 | 8.0 | 0.00 | 0.02 | 0.02 | 93 | 1019.7 |
| 20260906021558 | 62 | 212 | 5.0 | 11.0 | 0.00 | 0.02 | 0.02 | 93 | 1019.5 |
| 20260906020108 | 62 | 212 | 4.0 | 10.0 | 0.00 | 0.02 | 0.02 | 93 | 1019.5 |
| 20260906014555 | 63 | 212 | 3.0 | 9.0 | 0.00 | 0.02 | 0.02 | 93 | 1019.2 |
| 20260906013106 | 63 | 212 | 5.0 | 9.0 | 0.00 | 0.02 | 0.02 | 93 | 1018.9 |
| 20260906011604 | 63 | 212 | 5.0 | 10.0 | 0.00 | 0.02 | 0.02 | 93 | 1018.8 |
| 20260906004604 | 63 | 212 | 2.0 | 7.0 | 0.00 | 0.02 | 0.02 | 93 | 1019.0 |
| 20260906003103 | 63 | 212 | 4.0 | 9.0 | 0.00 | 0.02 | 0.02 | 92 | 1018.7 |
| 20260906001604 | 64 | 212 | 6.0 | 9.0 | 0.00 | 0.02 | 0.02 | 92 | 1018.9 |
| 20260906000106 | 64 | 212 | 5.0 | 13.0 | 0.00 | 0.02 | 0.02 | 92 | 1019.0 |
| 20260905234606 | 64 | 212 | 6.0 | 9.0 | 0.00 | 0.02 | 0.02 | 92 | 1019.1 |
| 20260905233103 | 64 | 212 | 5.0 | 10.0 | 0.00 | 0.02 | 0.02 | 91 | 1019.5 |
| 20260905231555 | 65 | 212 | 10.0 | 13.0 | 0.00 | 0.02 | 0.02 | 91 | 1019.2 |
| 20260905230103 | 65 | 212 | 5.0 | 9.0 | 0.00 | 0.02 | 0.02 | 92 | 1019.7 |
| 20260905224556 | 65 | 212 | 6.0 | 10.0 | 0.00 | 0.02 | 0.02 | 91 | 1019.6 |
| 20260905223103 | 65 | 212 | 4.0 | 9.0 | 0.00 | 0.02 | 0.02 | 91 | 1019.6 |
| 20260905221604 | 65 | 212 | 6.0 | 11.0 | 0.00 | 0.02 | 0.02 | 91 | 1019.8 |
| 20260905220107 | 66 | 212 | 4.0 | 10.0 | 0.00 | 0.02 | 0.02 | 90 | 1019.8 |
| 20260905214604 | 66 | 212 | 6.0 | 9.0 | 0.00 | 0.02 | 0.02 | 90 | 1019.6 |
| 20260905213105 | 67 | 212 | 4.0 | 9.0 | 0.00 | 0.02 | 0.02 | 90 | 1020.1 |
| 20260905211559 | 67 | 212 | 4.0 | 7.0 | 0.00 | 0.02 | 0.02 | 91 | 1020.1 |
| 20260905210120 | 67 | 212 | 2.0 | 8.0 | 0.00 | 0.02 | 0.02 | 91 | 1020.5 |
| 20260905204603 | 67 | 212 | 4.0 | 9.0 | 0.00 | 0.02 | 0.02 | 90 | 1020.2 |
| 20260905203055 | 68 | 212 | 4.0 | 7.0 | 0.00 | 0.02 | 0.02 | 90 | 1020.5 |
| 20260905201556 | 68 | 212 | 1.0 | 5.0 | 0.00 | 0.02 | 0.02 | 91 | 1020.3 |
| 20260905200112 | 67 | 212 | 0.0 | 5.0 | 0.00 | 0.02 | 0.02 | 92 | 1020.5 |
| 20260905194609 | 67 | 212 | 3.0 | 7.0 | 0.00 | 0.02 | 0.02 | 91 | 1020.4 |
| 20260905193052 | 67 | 212 | 3.0 | 7.0 | 0.00 | 0.02 | 0.02 | 92 | 1020.3 |
| 20260905191557 | 67 | 212 | 4.0 | 8.0 | 0.00 | 0.02 | 0.02 | 92 | 1020.4 |
| 20260905190052 | 67 | 212 | 4.0 | 9.0 | 0.00 | 0.02 | 0.02 | 92 | 1020.3 |
| 20260905184617 | 67 | 212 | 3.0 | 8.0 | 0.00 | 0.02 | 0.02 | 92 | 1020.3 |
| 20260905183054 | 67 | 212 | 5.0 | 8.0 | 0.00 | 0.02 | 0.02 | 92 | 1020.4 |
| 20260905181600 | 67 | 212 | 3.0 | 10.0 | 0.00 | 0.02 | 0.02 | 91 | 1020.4 |
| 20260905180053 | 67 | 212 | 4.0 | 9.0 | 0.00 | 0.02 | 0.02 | 92 | 1020.4 |
| 20260905174608 | 67 | 212 | 1.0 | 5.0 | 0.00 | 0.02 | 0.02 | 93 | 1020.5 |
| 20260905173106 | 66 | 212 | 3.0 | 6.0 | 0.00 | 0.02 | 0.02 | 94 | 1020.6 |
| 20260905171558 | 66 | 212 | 4.0 | 8.0 | 0.00 | 0.02 | 0.02 | 94 | 1020.6 |
| 20260905170052 | 65 | 212 | 2.0 | 7.0 | 0.00 | 0.02 | 0.02 | 95 | 1020.5 |